GLACB EGGP-EGBO

Flight info

Callsign GLACB
Flight time 0h 31m
Altitude 7000
Route EGGP NANTI EGBO
Aircraft P28A/L-SFG/C

Departure

Time 2026-04-21 11:34
Airport Liverpool John Lennon Airport (EGGP)

Arrival

Time 2026-04-21 12:05
Airport Wolverhampton Halfpenny Green Airport (EGBO)
Time Latitude Longitude Altitude Speed Heading
2026-04-21 11:18 53.33695 -2.83714 83 ft 0 kts 81°
2026-04-21 11:26 53.33677 -2.83696 83 ft 5 kts 202°
2026-04-21 11:26 53.33656 -2.83756 74 ft 6 kts 248°
2026-04-21 11:27 53.33608 -2.83794 74 ft 8 kts 177°
2026-04-21 11:27 53.33579 -2.83879 71 ft 11 kts 266°
2026-04-21 11:27 53.33573 -2.84017 72 ft 12 kts 267°
2026-04-21 11:27 53.33567 -2.84153 70 ft 11 kts 261°
2026-04-21 11:28 53.33558 -2.84287 73 ft 12 kts 264°
2026-04-21 11:28 53.33554 -2.84434 72 ft 12 kts 268°
2026-04-21 11:28 53.33547 -2.84568 74 ft 10 kts 267°
2026-04-21 11:28 53.33542 -2.84691 75 ft 11 kts 266°
2026-04-21 11:29 53.33537 -2.84811 78 ft 9 kts 265°
2026-04-21 11:29 53.33531 -2.84919 79 ft 10 kts 264°
2026-04-21 11:29 53.33527 -2.85043 79 ft 11 kts 268°
2026-04-21 11:29 53.33519 -2.85185 79 ft 13 kts 264°
2026-04-21 11:30 53.33512 -2.85349 79 ft 15 kts 265°
2026-04-21 11:30 53.33505 -2.85520 79 ft 15 kts 264°
2026-04-21 11:30 53.33499 -2.85633 79 ft 15 kts 265°
2026-04-21 11:30 53.33492 -2.85804 79 ft 15 kts 265°
2026-04-21 11:31 53.33483 -2.85973 79 ft 15 kts 266°
2026-04-21 11:31 53.33475 -2.86143 79 ft 15 kts 264°
2026-04-21 11:31 53.33467 -2.86321 80 ft 11 kts 267°
2026-04-21 11:31 53.33461 -2.86457 78 ft 13 kts 265°
2026-04-21 11:32 53.33452 -2.86635 66 ft 16 kts 258°
2026-04-21 11:32 53.33403 -2.86725 70 ft 16 kts 199°
2026-04-21 11:32 53.33308 -2.86672 72 ft 15 kts 136°
2026-04-21 11:32 53.33290 -2.86588 71 ft 0 kts 85°
2026-04-21 11:33 53.33301 -2.86335 71 ft 53 kts 84°
2026-04-21 11:33 53.33330 -2.85591 279 ft 69 kts 83°
2026-04-21 11:33 53.33353 -2.84767 642 ft 72 kts 89°
2026-04-21 11:34 53.33344 -2.83867 901 ft 85 kts 84°
2026-04-21 11:34 53.33440 -2.82848 1237 ft 91 kts 83°
2026-04-21 11:34 53.33515 -2.81791 1575 ft 91 kts 84°
2026-04-21 11:34 53.33583 -2.80719 1882 ft 93 kts 83°
2026-04-21 11:35 53.33509 -2.79649 2201 ft 98 kts 110°
2026-04-21 11:35 53.33004 -2.78829 2529 ft 105 kts 136°
2026-04-21 11:35 53.32406 -2.78153 2867 ft 105 kts 135°
2026-04-21 11:35 53.31804 -2.77462 3174 ft 105 kts 135°
2026-04-21 11:36 53.31203 -2.76774 3479 ft 104 kts 135°
2026-04-21 11:36 53.30605 -2.76090 3775 ft 104 kts 135°
2026-04-21 11:36 53.30000 -2.75397 3980 ft 112 kts 135°
2026-04-21 11:36 53.29305 -2.74595 3996 ft 128 kts 137°
2026-04-21 11:37 53.28541 -2.73726 3992 ft 136 kts 137°
2026-04-21 11:37 53.27765 -2.72851 3986 ft 129 kts 138°
2026-04-21 11:37 53.27054 -2.72050 3985 ft 121 kts 136°
2026-04-21 11:37 53.26370 -2.71269 3986 ft 119 kts 136°
2026-04-21 11:38 53.25689 -2.70491 3983 ft 118 kts 136°
2026-04-21 11:38 53.25012 -2.69720 3981 ft 118 kts 136°
2026-04-21 11:38 53.24338 -2.68952 3979 ft 117 kts 136°
2026-04-21 11:38 53.23661 -2.68183 3980 ft 118 kts 136°
2026-04-21 11:39 53.22981 -2.67410 3976 ft 118 kts 136°
2026-04-21 11:39 53.22298 -2.66633 3979 ft 120 kts 136°
2026-04-21 11:39 53.21603 -2.65842 3983 ft 122 kts 137°
2026-04-21 11:39 53.20907 -2.65052 3981 ft 122 kts 137°
2026-04-21 11:40 53.20202 -2.64253 3978 ft 122 kts 137°
2026-04-21 11:40 53.19501 -2.63459 3980 ft 122 kts 136°
2026-04-21 11:40 53.18801 -2.62665 3979 ft 122 kts 137°
2026-04-21 11:40 53.18131 -2.61829 3975 ft 120 kts 134°
2026-04-21 11:41 53.17440 -2.61033 3977 ft 121 kts 136°
2026-04-21 11:41 53.16749 -2.60234 3977 ft 121 kts 136°
2026-04-21 11:41 53.16060 -2.59426 3977 ft 121 kts 135°
2026-04-21 11:41 53.15376 -2.58619 3977 ft 121 kts 135°
2026-04-21 11:42 53.14690 -2.57808 3978 ft 121 kts 135°
2026-04-21 11:42 53.14003 -2.56996 3978 ft 121 kts 135°
2026-04-21 11:42 53.13232 -2.56404 3973 ft 127 kts 154°
2026-04-21 11:42 53.12380 -2.55995 3967 ft 127 kts 153°
2026-04-21 11:43 53.11532 -2.55572 3967 ft 127 kts 153°
2026-04-21 11:43 53.10684 -2.55146 3968 ft 127 kts 153°
2026-04-21 11:43 53.09837 -2.54721 3966 ft 127 kts 153°
2026-04-21 11:43 53.08993 -2.54297 3964 ft 127 kts 150°
2026-04-21 11:44 53.08150 -2.53875 3961 ft 126 kts 151°
2026-04-21 11:44 53.07380 -2.53489 3964 ft 126 kts 151°
2026-04-21 11:44 53.06596 -2.53095 3964 ft 127 kts 151°
2026-04-21 11:44 53.05745 -2.52668 3963 ft 127 kts 151°
2026-04-21 11:45 53.04898 -2.52244 3963 ft 127 kts 152°
2026-04-21 11:45 53.04056 -2.51824 3964 ft 126 kts 151°
2026-04-21 11:45 53.03216 -2.51402 3963 ft 126 kts 152°
2026-04-21 11:45 53.02376 -2.50981 3961 ft 126 kts 152°
2026-04-21 11:46 53.01544 -2.50565 3963 ft 126 kts 152°
2026-04-21 11:46 53.00701 -2.50143 3962 ft 127 kts 152°
2026-04-21 11:46 52.99854 -2.49720 3962 ft 127 kts 152°
2026-04-21 11:46 52.99015 -2.49301 3963 ft 127 kts 152°
2026-04-21 11:47 52.98168 -2.48879 3977 ft 127 kts 152°
2026-04-21 11:47 52.97316 -2.48452 3965 ft 127 kts 152°
2026-04-21 11:47 52.96475 -2.48035 3961 ft 125 kts 152°
2026-04-21 11:47 52.95643 -2.47620 3959 ft 124 kts 152°
2026-04-21 11:48 52.94820 -2.47209 3958 ft 124 kts 152°
2026-04-21 11:48 52.93993 -2.46796 3956 ft 124 kts 152°
2026-04-21 11:48 52.93165 -2.46383 3954 ft 124 kts 152°
2026-04-21 11:48 52.92338 -2.45971 3955 ft 124 kts 152°
2026-04-21 11:49 52.91507 -2.45557 3953 ft 125 kts 152°
2026-04-21 11:49 52.90676 -2.45144 3957 ft 125 kts 152°
2026-04-21 11:49 52.89847 -2.44730 3960 ft 127 kts 152°
2026-04-21 11:49 52.89000 -2.44310 3959 ft 127 kts 152°
2026-04-21 11:50 52.88155 -2.43891 3965 ft 127 kts 152°
2026-04-21 11:50 52.87307 -2.43470 3962 ft 126 kts 153°
2026-04-21 11:50 52.86463 -2.43051 3963 ft 127 kts 153°
2026-04-21 11:50 52.85622 -2.42634 3959 ft 126 kts 152°
2026-04-21 11:51 52.84784 -2.42218 3958 ft 126 kts 152°
2026-04-21 11:51 52.83947 -2.41802 3958 ft 126 kts 152°
2026-04-21 11:51 52.83105 -2.41384 3958 ft 127 kts 152°
2026-04-21 11:51 52.82258 -2.40964 3957 ft 127 kts 152°
2026-04-21 11:52 52.81426 -2.40553 3958 ft 126 kts 152°
2026-04-21 11:52 52.80581 -2.40134 3957 ft 127 kts 152°
2026-04-21 11:52 52.79724 -2.39709 3959 ft 127 kts 152°
2026-04-21 11:52 52.78879 -2.39292 3958 ft 127 kts 151°
2026-04-21 11:53 52.78047 -2.38881 3965 ft 127 kts 151°
2026-04-21 11:53 52.77197 -2.38459 3963 ft 127 kts 152°
2026-04-21 11:53 52.76350 -2.38042 3963 ft 127 kts 152°
2026-04-21 11:53 52.75504 -2.37624 3960 ft 127 kts 152°
2026-04-21 11:54 52.74662 -2.37209 3954 ft 126 kts 152°
2026-04-21 11:54 52.73821 -2.36793 3960 ft 126 kts 152°
2026-04-21 11:54 52.72979 -2.36377 3953 ft 127 kts 152°
2026-04-21 11:54 52.72133 -2.35960 3953 ft 127 kts 152°
2026-04-21 11:55 52.71289 -2.35545 3950 ft 126 kts 152°
2026-04-21 11:55 52.70459 -2.35135 3957 ft 128 kts 152°
2026-04-21 11:55 52.69603 -2.34712 3954 ft 129 kts 152°
2026-04-21 11:55 52.68743 -2.34288 3953 ft 129 kts 152°
2026-04-21 11:56 52.67886 -2.33869 3952 ft 127 kts 153°
2026-04-21 11:56 52.67037 -2.33451 3955 ft 128 kts 153°
2026-04-21 11:56 52.66182 -2.33030 3952 ft 128 kts 153°
2026-04-21 11:56 52.65327 -2.32610 3955 ft 128 kts 153°
2026-04-21 11:57 52.64470 -2.32188 3947 ft 129 kts 153°
2026-04-21 11:57 52.63614 -2.31769 3947 ft 128 kts 153°
2026-04-21 11:57 52.62763 -2.31351 3944 ft 127 kts 153°
2026-04-21 11:57 52.61916 -2.30935 3943 ft 127 kts 153°
2026-04-21 11:58 52.61052 -2.30506 3788 ft 135 kts 153°
2026-04-21 11:58 52.60135 -2.30054 3537 ft 139 kts 153°
2026-04-21 11:58 52.59231 -2.29618 3446 ft 132 kts 153°
2026-04-21 11:58 52.58371 -2.29202 3442 ft 126 kts 153°
2026-04-21 11:59 52.57538 -2.28792 3436 ft 124 kts 152°
2026-04-21 11:59 52.56728 -2.28395 3411 ft 123 kts 152°
2026-04-21 11:59 52.55917 -2.27997 3404 ft 121 kts 152°
2026-04-21 11:59 52.55088 -2.27584 3207 ft 132 kts 152°
2026-04-21 12:00 52.54176 -2.27133 2847 ft 140 kts 153°
2026-04-21 12:00 52.53235 -2.26677 2490 ft 142 kts 153°
2026-04-21 12:00 52.52219 -2.26750 2105 ft 161 kts 198°
2026-04-21 12:00 52.51503 -2.28154 1897 ft 158 kts 244°
2026-04-21 12:01 52.51038 -2.29686 1882 ft 143 kts 225°
2026-04-21 12:01 52.50217 -2.30232 1888 ft 122 kts 170°
2026-04-21 12:01 52.49384 -2.30295 1900 ft 120 kts 171°
2026-04-21 12:01 52.48544 -2.30194 1585 ft 118 kts 142°
2026-04-21 12:02 52.48220 -2.29237 1251 ft 91 kts 82°
2026-04-21 12:02 52.48411 -2.27490 886 ft 58 kts 79°
2026-04-21 12:02 52.48489 -2.26825 893 ft 62 kts 78°
2026-04-21 12:03 52.48569 -2.26122 900 ft 68 kts 79°
2026-04-21 12:03 52.48670 -2.25368 925 ft 67 kts 70°
2026-04-21 12:03 52.49051 -2.24862 923 ft 78 kts 33°
2026-04-21 12:03 52.49583 -2.24728 787 ft 73 kts 12°
2026-04-21 12:04 52.50077 -2.24840 652 ft 73 kts 359°
2026-04-21 12:04 52.50552 -2.25110 522 ft 72 kts 356°
2026-04-21 12:04 52.51008 -2.25419 389 ft 72 kts 352°
2026-04-21 12:04 52.51453 -2.25748 285 ft 65 kts 356°
2026-04-21 12:05 52.51757 -2.25992 279 ft 30 kts 348°
2026-04-21 12:05 52.51793 -2.26007 279 ft 0 kts 346°
2026-04-21 12:05 52.51793 -2.26008 279 ft 0 kts 346°
2026-04-21 12:06 52.51790 -2.25992 280 ft 4 kts 153°
2026-04-21 12:06 52.51749 -2.25962 279 ft 7 kts 155°
2026-04-21 12:06 52.51697 -2.25925 277 ft 9 kts 160°
2026-04-21 12:06 52.51664 -2.25956 277 ft 8 kts 277°
2026-04-21 12:07 52.51674 -2.26081 274 ft 14 kts 278°
2026-04-21 12:07 52.51684 -2.26254 269 ft 17 kts 263°
2026-04-21 12:07 52.51656 -2.26304 268 ft 1 kts 173°
2026-04-21 12:07 52.51581 -2.26261 270 ft 12 kts 141°
2026-04-21 12:08 52.51568 -2.26258 270 ft 0 kts 186°